Voltar ao catálogo

NOAA 16 DEB

AtivoPO
NORAD 42394·DEBRIS·🇺🇸 United States

Lançado Sep 21, 2000 de Vandenberg Space Force Base

Loading…

Próximas Passagens (próximas 24 horas)

TLE

AtualizadoSource: Space-Track

Época: Sep 14, 2026, 10:17 UTC

1 42394U 00055SN  26257.42905977  .00004927  00000-0  10357-2 0  9997
2 42394  98.9646 125.8690 0030201 173.9446 186.2122 14.59792867548622

Acompanhe NOAA 16 DEB em tempo real com AllMySat

Download on the App Store